Time,TemperatureF,DewpointF,PressureIn,WindDirection,WindDirectionDegrees,WindSpeedMPH,WindSpeedGustMPH,Humidity,HourlyPrecipIn,Conditions,Clouds,dailyrainin,SoftwareType,DateUTC
2013-07-09 00:01:00,69.3,69.3,29.64,WSW,247,0.0,1.6,100,0.00,,,0.00,Rainwise IP-100,2013-07-09 04:01:00,
2013-07-09 00:06:00,69.3,69.3,29.64,WSW,247,0.0,0.0,100,0.00,,,0.00,Rainwise IP-100,2013-07-09 04:06:00,
2013-07-09 00:12:00,69.4,69.3,29.64,WSW,247,0.0,0.0,100,0.00,,,0.00,Rainwise IP-100,2013-07-09 04:12:00,
2013-07-09 00:17:00,69.4,69.3,29.64,WSW,247,0.0,1.9,100,0.00,,,0.00,Rainwise IP-100,2013-07-09 04:17:00,
2013-07-09 00:22:00,69.2,69.3,29.64,WSW,247,0.0,2.3,100,0.00,,,0.00,Rainwise IP-100,2013-07-09 04:22:00,
2013-07-09 00:27:00,69.1,69.0,29.65,SSW,202,2.3,2.8,100,0.00,,,0.00,Rainwise IP-100,2013-07-09 04:27:00,
2013-07-09 00:32:00,69.0,69.0,29.65,SSW,202,1.2,2.6,100,0.00,,,0.00,Rainwise IP-100,2013-07-09 04:32:00,
2013-07-09 00:37:00,68.9,69.0,29.64,WSW,247,1.6,2.8,100,0.00,,,0.00,Rainwise IP-100,2013-07-09 04:37:00,
2013-07-09 00:42:00,68.9,69.0,29.64,WSW,247,0.0,2.1,100,0.00,,,0.00,Rainwise IP-100,2013-07-09 04:42:00,
2013-07-09 00:47:00,68.9,69.0,29.65,WSW,247,0.0,0.0,100,0.00,,,0.00,Rainwise IP-100,2013-07-09 04:47:00,
2013-07-09 00:52:00,68.9,69.0,29.65,NNW,337,2.6,2.6,100,0.00,,,0.00,Rainwise IP-100,2013-07-09 04:52:00,
2013-07-09 00:57:00,68.9,69.0,29.65,NNW,337,0.0,2.8,100,0.00,,,0.00,Rainwise IP-100,2013-07-09 04:57:00,
2013-07-09 01:02:00,68.9,69.0,29.65,NNW,337,0.0,1.2,100,0.00,,,0.00,Rainwise IP-100,2013-07-09 05:02:00,
2013-07-09 01:07:00,68.8,69.0,29.65,NNW,337,0.0,0.0,100,0.00,,,0.00,Rainwise IP-100,2013-07-09 05:07:00,
2013-07-09 01:12:00,68.7,68.5,29.65,NNW,337,2.3,2.3,100,0.00,,,0.00,Rainwise IP-100,2013-07-09 05:12:00,
2013-07-09 01:17:00,68.8,69.0,29.65,NNW,337,1.4,2.8,100,0.00,,,0.00,Rainwise IP-100,2013-07-09 05:17:00,
2013-07-09 01:22:00,68.8,69.0,29.65,NNW,337,0.0,1.9,100,0.00,,,0.00,Rainwise IP-100,2013-07-09 05:22:00,
2013-07-09 01:28:00,68.7,68.5,29.65,NNW,337,0.0,0.0,100,0.00,,,0.00,Rainwise IP-100,2013-07-09 05:28:00,
2013-07-09 01:33:00,68.7,68.5,29.65,NNW,337,0.0,0.0,100,0.00,,,0.00,Rainwise IP-100,2013-07-09 05:33:00,
2013-07-09 01:38:00,68.6,68.5,29.65,NNW,337,0.0,0.0,100,0.00,,,0.00,Rainwise IP-100,2013-07-09 05:38:00,
2013-07-09 01:43:00,68.7,68.5,29.65,NNW,337,0.0,2.8,100,0.00,,,0.00,Rainwise IP-100,2013-07-09 05:43:00,
2013-07-09 01:48:00,68.7,68.5,29.65,NNW,337,0.0,0.0,100,0.00,,,0.00,Rainwise IP-100,2013-07-09 05:48:00,
2013-07-09 01:53:00,68.7,68.5,29.65,NNW,337,1.2,2.1,100,0.00,,,0.00,Rainwise IP-100,2013-07-09 05:53:00,
2013-07-09 01:58:00,68.6,68.5,29.65,NNE,22,0.0,2.6,100,0.00,,,0.00,Rainwise IP-100,2013-07-09 05:58:00,
2013-07-09 02:03:00,68.5,68.5,29.65,NNE,22,1.9,1.9,100,0.00,,,0.00,Rainwise IP-100,2013-07-09 06:03:00,
2013-07-09 02:08:00,68.5,68.5,29.65,NNE,22,0.0,2.6,100,0.00,,,0.00,Rainwise IP-100,2013-07-09 06:08:00,
2013-07-09 02:13:00,68.4,68.5,29.65,NNE,22,0.0,2.1,100,0.00,,,0.00,Rainwise IP-100,2013-07-09 06:13:00,
2013-07-09 02:18:00,68.3,68.5,29.65,North,360,3.0,4.4,100,0.00,,,0.00,Rainwise IP-100,2013-07-09 06:18:00,
2013-07-09 02:23:00,68.1,68.0,29.65,NNE,22,0.0,4.2,100,0.00,,,0.00,Rainwise IP-100,2013-07-09 06:23:00,
2013-07-09 02:28:00,68.0,68.0,29.65,NNE,22,0.0,0.0,100,0.00,,,0.00,Rainwise IP-100,2013-07-09 06:28:00,
2013-07-09 02:33:00,68.0,68.0,29.65,NNE,22,0.0,0.0,100,0.00,,,0.00,Rainwise IP-100,2013-07-09 06:33:00,
2013-07-09 02:38:00,68.0,68.0,29.65,NNE,22,0.0,0.0,100,0.00,,,0.00,Rainwise IP-100,2013-07-09 06:38:00,
2013-07-09 02:44:00,67.9,68.0,29.65,NNE,22,1.4,2.8,100,0.00,,,0.00,Rainwise IP-100,2013-07-09 06:44:00,
2013-07-09 02:49:00,67.9,68.0,29.65,NNW,337,0.0,2.3,100,0.00,,,0.00,Rainwise IP-100,2013-07-09 06:49:00,
2013-07-09 02:54:00,67.8,68.0,29.65,SSW,202,0.0,1.6,100,0.00,,,0.00,Rainwise IP-100,2013-07-09 06:54:00,
2013-07-09 02:59:00,67.9,68.0,29.65,SSW,202,0.0,0.0,100,0.00,,,0.00,Rainwise IP-100,2013-07-09 06:59:00,
2013-07-09 03:04:00,68.0,68.0,29.64,SSW,202,0.0,0.0,100,0.00,,,0.00,Rainwise IP-100,2013-07-09 07:04:00,
2013-07-09 03:09:00,68.0,68.0,29.64,SSW,202,0.0,0.0,100,0.00,,,0.00,Rainwise IP-100,2013-07-09 07:09:00,
2013-07-09 03:14:00,68.0,68.0,29.64,SSW,202,0.0,0.0,100,0.00,,,0.00,Rainwise IP-100,2013-07-09 07:14:00,
2013-07-09 03:19:00,67.9,68.0,29.65,SSW,202,0.0,1.6,100,0.00,,,0.00,Rainwise IP-100,2013-07-09 07:19:00,
2013-07-09 03:24:00,67.8,68.0,29.64,SSW,202,0.0,0.0,100,0.00,,,0.00,Rainwise IP-100,2013-07-09 07:24:00,
2013-07-09 03:29:00,67.7,67.5,29.65,NW,315,1.4,2.1,100,0.00,,,0.00,Rainwise IP-100,2013-07-09 07:29:00,
2013-07-09 03:34:00,67.4,67.5,29.64,NW,315,0.0,1.9,100,0.00,,,0.00,Rainwise IP-100,2013-07-09 07:34:00,
2013-07-09 03:39:00,67.2,67.0,29.64,NW,315,0.0,0.0,100,0.00,,,0.00,Rainwise IP-100,2013-07-09 07:39:00,
2013-07-09 03:44:00,67.1,67.0,29.64,NW,315,0.0,1.4,100,0.00,,,0.00,Rainwise IP-100,2013-07-09 07:44:00,
2013-07-09 03:52:00,67.0,67.0,29.64,NW,315,0.0,0.0,100,0.00,,,0.00,Rainwise IP-100,2013-07-09 07:52:00,
2013-07-09 03:58:00,67.0,67.0,29.64,NW,315,0.0,0.0,100,0.00,,,0.00,Rainwise IP-100,2013-07-09 07:58:00,
2013-07-09 04:03:00,66.9,67.0,29.64,NW,315,0.0,0.0,100,0.00,,,0.00,Rainwise IP-100,2013-07-09 08:03:00,
2013-07-09 04:08:00,66.9,67.0,29.64,NW,315,0.0,0.0,100,0.00,,,0.00,Rainwise IP-100,2013-07-09 08:08:00,
2013-07-09 04:13:00,67.0,67.0,29.65,NW,315,0.0,0.0,100,0.00,,,0.00,Rainwise IP-100,2013-07-09 08:13:00,
2013-07-09 04:16:00,66.9,67.0,29.65,NW,315,0.0,0.0,100,0.00,,,0.00,Rainwise IP-100,2013-07-09 08:16:00,
2013-07-09 04:21:00,66.9,67.0,29.65,NW,315,0.0,0.0,100,0.00,,,0.00,Rainwise IP-100,2013-07-09 08:21:00,
2013-07-09 04:26:00,66.9,67.0,29.65,NW,315,0.0,0.0,100,0.00,,,0.00,Rainwise IP-100,2013-07-09 08:26:00,
2013-07-09 04:31:00,66.9,67.0,29.65,NW,315,0.0,0.0,100,0.00,,,0.00,Rainwise IP-100,2013-07-09 08:31:00,
2013-07-09 04:36:00,67.0,67.0,29.65,NW,315,0.0,0.0,100,0.00,,,0.00,Rainwise IP-100,2013-07-09 08:36:00,
2013-07-09 04:41:00,67.0,67.0,29.65,NW,315,0.0,0.0,100,0.00,,,0.00,Rainwise IP-100,2013-07-09 08:41:00,
2013-07-09 04:46:00,67.0,67.0,29.65,NW,315,0.0,0.0,100,0.00,,,0.00,Rainwise IP-100,2013-07-09 08:46:00,
2013-07-09 04:51:00,67.0,67.0,29.65,NW,315,0.0,0.0,100,0.00,,,0.00,Rainwise IP-100,2013-07-09 08:51:00,
2013-07-09 04:56:00,67.0,67.0,29.65,NW,315,0.0,0.0,100,0.00,,,0.00,Rainwise IP-100,2013-07-09 08:56:00,
2013-07-09 05:01:00,67.0,67.0,29.65,NW,315,0.0,0.0,100,0.00,,,0.00,Rainwise IP-100,2013-07-09 09:01:00,
2013-07-09 05:06:00,67.0,67.0,29.65,NW,315,0.0,0.0,100,0.00,,,0.00,Rainwise IP-100,2013-07-09 09:06:00,
2013-07-09 05:11:00,66.9,67.0,29.65,NW,315,0.0,0.0,100,0.00,,,0.00,Rainwise IP-100,2013-07-09 09:11:00,
2013-07-09 05:16:00,66.8,66.7,29.66,NW,315,0.0,0.0,100,0.00,,,0.00,Rainwise IP-100,2013-07-09 09:16:00,
2013-07-09 05:21:00,66.7,66.7,29.66,NW,315,0.0,0.0,100,0.00,,,0.00,Rainwise IP-100,2013-07-09 09:21:00,
2013-07-09 05:26:00,66.6,66.7,29.66,NW,315,0.0,0.0,100,0.00,,,0.00,Rainwise IP-100,2013-07-09 09:26:00,
2013-07-09 05:32:00,66.5,66.7,29.67,NW,315,0.0,1.4,100,0.00,,,0.00,Rainwise IP-100,2013-07-09 09:32:00,
2013-07-09 05:37:00,66.4,66.3,29.66,SW,225,2.6,2.6,100,0.00,,,0.00,Rainwise IP-100,2013-07-09 09:37:00,
2013-07-09 05:42:00,66.5,66.7,29.66,SW,225,0.0,2.6,100,0.00,,,0.00,Rainwise IP-100,2013-07-09 09:42:00,
2013-07-09 05:47:00,66.6,66.7,29.66,SW,225,0.0,0.0,100,0.00,,,0.00,Rainwise IP-100,2013-07-09 09:47:00,
2013-07-09 05:52:00,66.6,66.7,29.67,SW,225,0.0,1.2,100,0.00,,,0.00,Rainwise IP-100,2013-07-09 09:52:00,
2013-07-09 05:57:00,66.6,66.7,29.67,SW,225,1.2,1.4,100,0.00,,,0.00,Rainwise IP-100,2013-07-09 09:57:00,
2013-07-09 06:02:00,66.7,66.7,29.67,SW,225,0.0,1.4,100,0.00,,,0.00,Rainwise IP-100,2013-07-09 10:02:00,
2013-07-09 06:07:00,66.7,66.7,29.67,SW,225,0.0,1.2,100,0.00,,,0.00,Rainwise IP-100,2013-07-09 10:07:00,
2013-07-09 06:12:00,66.6,66.7,29.67,SW,225,0.0,0.0,100,0.00,,,0.00,Rainwise IP-100,2013-07-09 10:12:00,
2013-07-09 06:17:00,66.6,66.7,29.67,SW,225,0.0,1.4,100,0.00,,,0.00,Rainwise IP-100,2013-07-09 10:17:00,
2013-07-09 06:22:00,66.5,66.7,29.68,SW,225,0.0,0.0,100,0.00,,,0.00,Rainwise IP-100,2013-07-09 10:22:00,
2013-07-09 06:27:00,66.5,66.7,29.68,SW,225,0.0,0.0,100,0.00,,,0.00,Rainwise IP-100,2013-07-09 10:27:00,
2013-07-09 06:32:00,66.5,66.7,29.68,SW,225,0.0,0.0,100,0.00,,,0.00,Rainwise IP-100,2013-07-09 10:32:00,
2013-07-09 06:37:00,66.6,66.7,29.68,SW,225,0.0,0.0,100,0.00,,,0.00,Rainwise IP-100,2013-07-09 10:37:00,
2013-07-09 06:42:00,66.5,66.7,29.68,WNW,292,0.0,2.6,100,0.00,,,0.00,Rainwise IP-100,2013-07-09 10:42:00,
2013-07-09 06:48:00,66.5,66.7,29.68,WNW,292,0.0,0.0,100,0.00,,,0.00,Rainwise IP-100,2013-07-09 10:48:00,
2013-07-09 06:53:00,66.7,66.7,29.69,WSW,247,0.0,0.0,100,0.00,,,0.00,Rainwise IP-100,2013-07-09 10:53:00,
2013-07-09 06:58:00,66.8,66.7,29.68,WSW,247,0.0,0.0,100,0.00,,,0.00,Rainwise IP-100,2013-07-09 10:58:00,
2013-07-09 07:03:00,66.9,67.0,29.69,WSW,247,0.0,0.0,100,0.00,,,0.00,Rainwise IP-100,2013-07-09 11:03:00,
2013-07-09 07:08:00,67.0,67.0,29.69,WSW,247,0.0,0.0,100,0.00,,,0.00,Rainwise IP-100,2013-07-09 11:08:00,
2013-07-09 07:13:00,67.1,67.0,29.69,WSW,247,0.0,0.0,100,0.00,,,0.00,Rainwise IP-100,2013-07-09 11:13:00,
2013-07-09 07:18:00,67.3,67.5,29.69,WSW,247,0.0,0.0,100,0.00,,,0.00,Rainwise IP-100,2013-07-09 11:18:00,
2013-07-09 07:23:00,67.5,67.5,29.69,WSW,247,0.0,0.0,100,0.00,,,0.00,Rainwise IP-100,2013-07-09 11:23:00,
2013-07-09 07:28:00,67.6,67.5,29.69,North,360,2.6,3.3,100,0.00,,,0.00,Rainwise IP-100,2013-07-09 11:28:00,
2013-07-09 07:33:00,67.6,67.5,29.69,North,360,0.0,2.8,100,0.00,,,0.00,Rainwise IP-100,2013-07-09 11:33:00,
2013-07-09 07:38:00,67.8,68.0,29.69,North,360,1.4,1.4,100,0.00,,,0.00,Rainwise IP-100,2013-07-09 11:38:00,
2013-07-09 07:43:00,67.9,68.0,29.69,North,360,0.0,2.3,100,0.00,,,0.00,Rainwise IP-100,2013-07-09 11:43:00,
2013-07-09 07:48:00,68.1,68.0,29.69,North,360,0.0,1.9,100,0.00,,,0.00,Rainwise IP-100,2013-07-09 11:48:00,
2013-07-09 07:53:00,68.4,68.5,29.69,North,360,0.0,0.0,100,0.00,,,0.00,Rainwise IP-100,2013-07-09 11:53:00,
2013-07-09 07:58:00,68.6,68.5,29.69,WNW,292,0.0,1.4,100,0.00,,,0.00,Rainwise IP-100,2013-07-09 11:58:00,
2013-07-09 08:04:00,68.8,69.0,29.69,WNW,292,0.0,0.0,100,0.00,,,0.00,Rainwise IP-100,2013-07-09 12:04:00,
2013-07-09 08:09:00,68.9,69.0,29.69,WNW,292,0.0,0.0,100,0.00,,,0.00,Rainwise IP-100,2013-07-09 12:09:00,
2013-07-09 08:14:00,69.1,69.0,29.69,WNW,292,0.0,0.0,100,0.00,,,0.00,Rainwise IP-100,2013-07-09 12:14:00,
2013-07-09 08:19:00,69.2,69.3,29.68,WSW,247,0.0,0.0,100,0.00,,,0.00,Rainwise IP-100,2013-07-09 12:19:00,
2013-07-09 08:24:00,69.2,69.3,29.68,SSW,202,0.0,2.6,100,0.00,,,0.00,Rainwise IP-100,2013-07-09 12:24:00,
2013-07-09 08:29:00,69.6,69.7,29.69,NNW,337,0.0,1.4,100,0.00,,,0.00,Rainwise IP-100,2013-07-09 12:29:00,
2013-07-09 08:34:00,70.4,70.5,29.69,SSE,157,0.0,2.1,100,0.00,,,0.00,Rainwise IP-100,2013-07-09 12:34:00,
2013-07-09 08:39:00,71.3,71.3,29.68,WSW,247,0.0,1.6,100,0.00,,,0.00,Rainwise IP-100,2013-07-09 12:39:00,
2013-07-09 08:44:00,71.5,71.7,29.68,ESE,112,1.6,4.7,100,0.00,,,0.00,Rainwise IP-100,2013-07-09 12:44:00,
2013-07-09 08:49:00,71.2,71.0,29.68,ESE,112,0.0,3.7,99,0.00,,,0.00,Rainwise IP-100,2013-07-09 12:49:00,
2013-07-09 08:54:00,71.7,71.3,29.68,SSW,202,1.9,2.6,99,0.00,,,0.00,Rainwise IP-100,2013-07-09 12:54:00,
2013-07-09 08:59:00,71.9,72.0,29.68,SE,135,0.0,3.0,100,0.00,,,0.00,Rainwise IP-100,2013-07-09 12:59:00,
2013-07-09 09:04:00,71.6,71.7,29.68,WSW,247,1.6,3.0,100,0.00,,,0.00,Rainwise IP-100,2013-07-09 13:04:00,
2013-07-09 09:09:00,71.7,71.7,29.68,WSW,247,1.6,4.2,100,0.00,,,0.00,Rainwise IP-100,2013-07-09 13:09:00,
2013-07-09 09:14:00,71.2,71.3,29.68,WSW,247,3.5,4.4,100,0.00,,,0.00,Rainwise IP-100,2013-07-09 13:14:00,
2013-07-09 09:20:00,71.1,70.5,29.67,SSW,202,0.0,4.0,99,0.00,,,0.00,Rainwise IP-100,2013-07-09 13:20:00,
2013-07-09 09:25:00,71.9,71.7,29.68,WSW,247,0.0,2.6,99,0.00,,,0.00,Rainwise IP-100,2013-07-09 13:25:00,
2013-07-09 09:30:00,72.8,72.7,29.67,SSW,202,0.0,2.1,100,0.00,,,0.00,Rainwise IP-100,2013-07-09 13:30:00,
2013-07-09 09:35:00,73.0,73.0,29.68,SSW,202,3.0,3.5,100,0.00,,,0.00,Rainwise IP-100,2013-07-09 13:35:00,
2013-07-09 09:40:00,72.9,73.0,29.68,SW,225,3.0,3.3,100,0.00,,,0.00,Rainwise IP-100,2013-07-09 13:40:00,
2013-07-09 09:45:00,72.7,72.7,29.68,SSW,202,0.0,3.7,100,0.00,,,0.00,Rainwise IP-100,2013-07-09 13:45:00,
2013-07-09 09:50:00,72.5,72.7,29.68,SSW,202,1.6,1.9,100,0.00,,,0.00,Rainwise IP-100,2013-07-09 13:50:00,
2013-07-09 09:55:00,72.9,73.0,29.68,SSW,202,0.0,2.1,100,0.00,,,0.00,Rainwise IP-100,2013-07-09 13:55:00,
2013-07-09 10:00:00,73.5,73.7,29.68,SSW,202,0.0,1.9,100,0.00,,,0.00,Rainwise IP-100,2013-07-09 14:00:00,
2013-07-09 10:05:00,73.8,73.7,29.67,SW,225,3.0,4.0,100,0.00,,,0.00,Rainwise IP-100,2013-07-09 14:05:00,
2013-07-09 10:10:00,73.7,73.7,29.68,SSW,202,2.6,4.4,100,0.00,,,0.00,Rainwise IP-100,2013-07-09 14:10:00,
2013-07-09 10:15:00,73.5,73.3,29.68,SSE,157,3.5,3.5,99,0.00,,,0.00,Rainwise IP-100,2013-07-09 14:15:00,
2013-07-09 10:20:00,73.4,73.0,29.68,SSE,157,3.5,4.9,99,0.00,,,0.00,Rainwise IP-100,2013-07-09 14:20:00,
2013-07-09 10:25:00,73.8,73.0,29.68,SE,135,1.9,4.4,98,0.00,,,0.00,Rainwise IP-100,2013-07-09 14:25:00,
2013-07-09 10:30:00,74.2,73.7,29.68,SSE,157,2.6,3.0,98,0.00,,,0.01,Rainwise IP-100,2013-07-09 14:30:00,
2013-07-09 10:36:00,74.4,73.7,29.68,SSE,157,1.9,4.2,98,0.06,,,0.01,Rainwise IP-100,2013-07-09 14:36:00,
2013-07-09 10:41:00,74.3,73.3,29.68,SSE,157,1.2,4.7,97,0.06,,,0.01,Rainwise IP-100,2013-07-09 14:41:00,
2013-07-09 10:46:00,74.2,73.3,29.68,WSW,247,1.6,4.7,96,0.00,,,0.01,Rainwise IP-100,2013-07-09 14:46:00,
2013-07-09 10:51:00,74.3,73.0,29.68,SSE,157,0.0,3.7,95,0.00,,,0.01,Rainwise IP-100,2013-07-09 14:51:00,
2013-07-09 10:56:00,74.7,73.7,29.68,SSW,202,2.6,3.0,97,0.00,,,0.01,Rainwise IP-100,2013-07-09 14:56:00,
2013-07-09 11:01:00,75.0,74.0,29.68,SSW,202,4.2,4.2,97,0.00,,,0.01,Rainwise IP-100,2013-07-09 15:01:00,
2013-07-09 11:06:00,74.9,73.7,29.67,SSW,202,0.0,5.1,95,0.00,,,0.01,Rainwise IP-100,2013-07-09 15:06:00,
2013-07-09 11:11:00,75.1,73.0,29.67,SSW,202,0.0,4.2,93,0.00,,,0.01,Rainwise IP-100,2013-07-09 15:11:00,
2013-07-09 11:16:00,75.7,73.7,29.67,SSW,202,2.1,3.5,94,0.00,,,0.01,Rainwise IP-100,2013-07-09 15:16:00,
2013-07-09 11:21:00,76.3,74.3,29.67,SSE,157,4.2,5.6,95,0.00,,,0.01,Rainwise IP-100,2013-07-09 15:21:00,
2013-07-09 11:26:00,76.7,74.7,29.67,South,180,0.0,5.1,94,0.00,,,0.01,Rainwise IP-100,2013-07-09 15:26:00,
2013-07-09 11:31:00,77.6,76.3,29.67,SSW,202,1.6,3.0,95,0.00,,,0.01,Rainwise IP-100,2013-07-09 15:31:00,
2013-07-09 11:36:00,78.7,77.7,29.67,SSW,202,3.0,3.0,97,0.00,,,0.01,Rainwise IP-100,2013-07-09 15:36:00,
2013-07-09 11:41:00,78.9,77.0,29.67,WSW,247,3.5,5.1,94,0.00,,,0.01,Rainwise IP-100,2013-07-09 15:41:00,
2013-07-09 11:46:00,78.5,76.3,29.67,SSW,202,0.0,4.2,92,0.00,,,0.01,Rainwise IP-100,2013-07-09 15:46:00,
2013-07-09 11:52:00,78.1,75.0,29.67,West,270,1.4,4.2,91,0.00,,,0.01,Rainwise IP-100,2013-07-09 15:52:00,
2013-07-09 11:57:00,78.3,76.0,29.67,NNW,337,0.0,2.3,92,0.00,,,0.01,Rainwise IP-100,2013-07-09 15:57:00,
2013-07-09 12:02:00,77.8,74.7,29.66,ENE,67,2.3,3.7,91,0.00,,,0.01,Rainwise IP-100,2013-07-09 16:02:00,
2013-07-09 12:07:00,77.5,74.0,29.66,NNW,337,0.0,2.8,89,0.00,,,0.01,Rainwise IP-100,2013-07-09 16:07:00,
2013-07-09 12:12:00,78.6,74.7,29.66,WSW,247,0.0,3.0,88,0.00,,,0.01,Rainwise IP-100,2013-07-09 16:12:00,
2013-07-09 12:17:00,79.5,74.7,29.66,East,90,3.5,5.6,85,0.00,,,0.01,Rainwise IP-100,2013-07-09 16:17:00,
2013-07-09 12:22:00,78.5,72.3,29.66,WSW,247,1.6,4.9,81,0.00,,,0.01,Rainwise IP-100,2013-07-09 16:22:00,
2013-07-09 12:27:00,78.0,71.3,29.66,NNE,22,4.4,5.8,79,0.00,,,0.01,Rainwise IP-100,2013-07-09 16:27:00,
2013-07-09 12:32:00,78.2,71.0,29.65,ENE,67,7.2,7.2,78,0.00,,,0.01,Rainwise IP-100,2013-07-09 16:32:00,
2013-07-09 12:37:00,77.0,69.7,29.66,ESE,112,3.7,7.5,78,0.00,,,0.01,Rainwise IP-100,2013-07-09 16:37:00,
2013-07-09 12:42:00,77.3,70.0,29.65,SSE,157,1.4,7.0,78,0.00,,,0.01,Rainwise IP-100,2013-07-09 16:42:00,
2013-07-09 12:47:00,78.6,71.0,29.65,ESE,112,3.3,5.8,77,0.00,,,0.01,Rainwise IP-100,2013-07-09 16:47:00,
2013-07-09 12:52:00,78.8,70.5,29.65,SSE,157,0.0,4.0,76,0.00,,,0.01,Rainwise IP-100,2013-07-09 16:52:00,
2013-07-09 12:57:00,79.6,70.5,29.65,NE,45,1.2,2.1,74,0.00,,,0.01,Rainwise IP-100,2013-07-09 16:57:00,
2013-07-09 13:03:00,80.3,71.0,29.65,NNE,22,2.3,2.3,73,0.00,,,0.01,Rainwise IP-100,2013-07-09 17:03:00,
2013-07-09 13:08:00,79.0,69.7,29.65,ENE,67,3.5,5.4,73,0.00,,,0.01,Rainwise IP-100,2013-07-09 17:08:00,
2013-07-09 13:13:00,77.9,69.3,29.65,NNE,22,1.9,3.0,74,0.00,,,0.01,Rainwise IP-100,2013-07-09 17:13:00,
2013-07-09 13:18:00,78.4,69.7,29.65,ESE,112,1.4,3.0,74,0.00,,,0.01,Rainwise IP-100,2013-07-09 17:18:00,
2013-07-09 13:23:00,78.1,69.7,29.65,ESE,112,3.5,9.1,75,0.00,,,0.01,Rainwise IP-100,2013-07-09 17:23:00,
2013-07-09 13:28:00,77.6,69.7,29.65,North,360,0.0,4.0,76,0.00,,,0.01,Rainwise IP-100,2013-07-09 17:28:00,
2013-07-09 13:33:00,78.1,70.0,29.64,NNW,337,1.6,4.7,76,0.00,,,0.01,Rainwise IP-100,2013-07-09 17:33:00,
2013-07-09 13:38:00,78.8,70.5,29.64,NNW,337,2.3,3.7,76,0.00,,,0.01,Rainwise IP-100,2013-07-09 17:38:00,
2013-07-09 13:43:00,79.6,71.7,29.64,WNW,292,1.2,6.3,76,0.00,,,0.01,Rainwise IP-100,2013-07-09 17:43:00,
2013-07-09 13:48:00,80.7,72.7,29.64,ENE,67,2.8,4.0,76,0.00,,,0.01,Rainwise IP-100,2013-07-09 17:48:00,
2013-07-09 13:53:00,81.3,72.7,29.64,NE,45,3.3,5.4,75,0.00,,,0.01,Rainwise IP-100,2013-07-09 17:53:00,
2013-07-09 13:58:00,80.7,71.0,29.63,ENE,67,6.8,7.0,72,0.00,,,0.01,Rainwise IP-100,2013-07-09 17:58:00,
2013-07-09 14:03:00,80.5,70.0,29.63,WSW,247,0.0,8.4,70,0.00,,,0.01,Rainwise IP-100,2013-07-09 18:03:00,
2013-07-09 14:08:00,81.6,70.5,29.63,ESE,112,1.9,4.7,69,0.00,,,0.01,Rainwise IP-100,2013-07-09 18:08:00,
2013-07-09 14:13:00,81.5,70.5,29.63,NNE,22,0.0,4.7,69,0.00,,,0.01,Rainwise IP-100,2013-07-09 18:13:00,
2013-07-09 14:19:00,80.8,69.3,29.63,NE,45,2.8,5.6,68,0.00,,,0.01,Rainwise IP-100,2013-07-09 18:19:00,
2013-07-09 14:24:00,80.6,69.0,29.63,East,90,3.0,6.3,68,0.00,,,0.01,Rainwise IP-100,2013-07-09 18:24:00,
2013-07-09 14:29:00,81.5,69.7,29.62,SE,135,2.6,5.8,67,0.00,,,0.01,Rainwise IP-100,2013-07-09 18:29:00,
2013-07-09 14:34:00,81.9,70.0,29.62,ENE,67,1.6,5.4,67,0.00,,,0.01,Rainwise IP-100,2013-07-09 18:34:00,
2013-07-09 14:39:00,80.6,68.5,29.62,ESE,112,1.2,5.4,67,0.00,,,0.01,Rainwise IP-100,2013-07-09 18:39:00,
2013-07-09 14:44:00,80.7,69.0,29.61,SSE,157,0.0,4.9,67,0.00,,,0.01,Rainwise IP-100,2013-07-09 18:44:00,
2013-07-09 14:49:00,81.8,69.3,29.61,ENE,67,0.0,4.0,66,0.00,,,0.01,Rainwise IP-100,2013-07-09 18:49:00,
2013-07-09 14:54:00,82.3,69.7,29.61,SSW,202,1.2,4.0,66,0.00,,,0.01,Rainwise IP-100,2013-07-09 18:54:00,
2013-07-09 14:59:00,82.9,70.0,29.61,SSW,202,1.4,3.5,65,0.00,,,0.01,Rainwise IP-100,2013-07-09 18:59:00,
2013-07-09 15:04:00,82.0,69.3,29.61,ENE,67,4.7,6.1,65,0.00,,,0.01,Rainwise IP-100,2013-07-09 19:04:00,
2013-07-09 15:09:00,80.7,69.0,29.61,SE,135,1.9,4.9,67,0.00,,,0.01,Rainwise IP-100,2013-07-09 19:09:00,
2013-07-09 15:14:00,81.7,69.7,29.61,NNE,22,0.0,4.7,67,0.00,,,0.01,Rainwise IP-100,2013-07-09 19:14:00,
2013-07-09 15:19:00,82.8,70.5,29.60,ENE,67,3.0,6.1,66,0.00,,,0.01,Rainwise IP-100,2013-07-09 19:19:00,
2013-07-09 15:24:00,81.7,69.0,29.61,ESE,112,0.0,7.9,65,0.00,,,0.01,Rainwise IP-100,2013-07-09 19:24:00,
2013-07-09 15:29:00,81.4,68.5,29.61,SSW,202,1.6,5.6,65,0.00,,,0.01,Rainwise IP-100,2013-07-09 19:29:00,
2013-07-09 15:35:00,82.1,69.3,29.61,NE,45,2.6,4.0,65,0.00,,,0.01,Rainwise IP-100,2013-07-09 19:35:00,
2013-07-09 15:40:00,82.9,70.0,29.61,WSW,247,3.0,5.4,65,0.00,,,0.01,Rainwise IP-100,2013-07-09 19:40:00,
2013-07-09 15:45:00,84.0,71.3,29.61,NNE,22,4.9,4.9,65,0.00,,,0.01,Rainwise IP-100,2013-07-09 19:45:00,
2013-07-09 15:50:00,84.3,70.5,29.61,SSE,157,0.0,5.1,63,0.00,,,0.01,Rainwise IP-100,2013-07-09 19:50:00,
2013-07-09 15:55:00,83.5,69.7,29.61,WSW,247,0.0,5.6,63,0.00,,,0.01,Rainwise IP-100,2013-07-09 19:55:00,
2013-07-09 16:00:00,82.9,69.7,29.61,SE,135,1.2,5.8,64,0.00,,,0.01,Rainwise IP-100,2013-07-09 20:00:00,
2013-07-09 16:05:00,83.1,70.0,29.61,SE,135,7.0,7.0,65,0.00,,,0.01,Rainwise IP-100,2013-07-09 20:05:00,
2013-07-09 16:10:00,83.2,70.0,29.62,ENE,67,2.6,7.0,64,0.00,,,0.01,Rainwise IP-100,2013-07-09 20:10:00,
2013-07-09 16:15:00,81.9,69.3,29.61,ESE,112,2.1,8.2,65,0.00,,,0.01,Rainwise IP-100,2013-07-09 20:15:00,
2013-07-09 16:20:00,81.9,69.7,29.61,SSE,157,6.1,6.1,66,0.00,,,0.01,Rainwise IP-100,2013-07-09 20:20:00,
2013-07-09 16:25:00,82.2,69.3,29.61,ENE,67,2.3,7.9,65,0.00,,,0.01,Rainwise IP-100,2013-07-09 20:25:00,
2013-07-09 16:30:00,82.0,68.5,29.61,NNW,337,1.2,6.3,64,0.00,,,0.01,Rainwise IP-100,2013-07-09 20:30:00,
2013-07-09 16:36:00,82.4,69.3,29.61,ENE,67,0.0,6.1,64,0.00,,,0.01,Rainwise IP-100,2013-07-09 20:36:00,
2013-07-09 16:41:00,81.8,69.0,29.60,NNE,22,0.0,6.5,65,0.00,,,0.01,Rainwise IP-100,2013-07-09 20:41:00,
2013-07-09 16:46:00,81.2,69.0,29.61,NE,45,5.4,11.7,66,0.00,,,0.01,Rainwise IP-100,2013-07-09 20:46:00,
2013-07-09 16:51:00,80.7,69.0,29.60,NNE,22,3.3,10.0,67,0.00,,,0.01,Rainwise IP-100,2013-07-09 20:51:00,
2013-07-09 16:56:00,80.4,68.5,29.61,SW,225,6.8,11.7,67,0.00,,,0.01,Rainwise IP-100,2013-07-09 20:56:00,
2013-07-09 17:01:00,79.9,68.5,29.60,ENE,67,4.7,8.4,68,0.00,,,0.01,Rainwise IP-100,2013-07-09 21:01:00,
2013-07-09 17:06:00,79.7,68.5,29.61,ENE,67,2.1,7.7,69,0.00,,,0.01,Rainwise IP-100,2013-07-09 21:06:00,
2013-07-09 17:11:00,79.4,69.0,29.61,ESE,112,4.7,7.7,70,0.00,,,0.01,Rainwise IP-100,2013-07-09 21:11:00,
2013-07-09 17:16:00,79.0,69.0,29.61,WNW,292,1.2,7.5,71,0.00,,,0.01,Rainwise IP-100,2013-07-09 21:16:00,
2013-07-09 17:21:00,78.8,69.0,29.60,ESE,112,1.9,8.2,72,0.00,,,0.01,Rainwise IP-100,2013-07-09 21:21:00,
2013-07-09 17:26:00,78.6,69.0,29.61,ENE,67,1.4,5.6,72,0.00,,,0.01,Rainwise IP-100,2013-07-09 21:26:00,
2013-07-09 17:31:00,78.3,69.3,29.60,ESE,112,3.0,6.8,73,0.00,,,0.01,Rainwise IP-100,2013-07-09 21:31:00,
2013-07-09 17:36:00,78.2,69.3,29.60,SSE,157,3.0,5.1,73,0.00,,,0.01,Rainwise IP-100,2013-07-09 21:36:00,
2013-07-09 17:41:00,78.0,69.3,29.61,SSE,157,1.6,6.8,74,0.00,,,0.01,Rainwise IP-100,2013-07-09 21:41:00,
2013-07-09 17:46:00,77.8,69.3,29.60,WSW,247,6.8,7.7,75,0.00,,,0.01,Rainwise IP-100,2013-07-09 21:46:00,
2013-07-09 17:52:00,77.7,69.3,29.61,North,360,0.0,7.2,75,0.00,,,0.01,Rainwise IP-100,2013-07-09 21:52:00,
2013-07-09 17:57:00,77.6,69.3,29.61,NNE,22,0.0,7.2,75,0.00,,,0.01,Rainwise IP-100,2013-07-09 21:57:00,
2013-07-09 18:02:00,77.3,69.3,29.61,WSW,247,4.7,7.7,76,0.00,,,0.01,Rainwise IP-100,2013-07-09 22:02:00,
2013-07-09 18:07:00,77.0,69.0,29.61,SSW,202,4.2,9.3,76,0.00,,,0.01,Rainwise IP-100,2013-07-09 22:07:00,
2013-07-09 18:12:00,76.9,69.3,29.61,WSW,247,5.6,12.8,77,0.00,,,0.01,Rainwise IP-100,2013-07-09 22:12:00,
2013-07-09 18:17:00,76.7,69.3,29.61,SSW,202,2.1,9.3,77,0.00,,,0.01,Rainwise IP-100,2013-07-09 22:17:00,
2013-07-09 18:22:00,76.6,69.0,29.61,SSE,157,3.0,5.8,77,0.00,,,0.01,Rainwise IP-100,2013-07-09 22:22:00,
2013-07-09 18:27:00,76.5,69.0,29.61,WSW,247,3.5,5.6,77,0.00,,,0.01,Rainwise IP-100,2013-07-09 22:27:00,
2013-07-09 18:32:00,76.4,69.0,29.61,SE,135,0.0,6.1,77,0.00,,,0.01,Rainwise IP-100,2013-07-09 22:32:00,
2013-07-09 18:37:00,76.2,69.0,29.62,NE,45,2.3,5.6,78,0.00,,,0.01,Rainwise IP-100,2013-07-09 22:37:00,
2013-07-09 18:42:00,76.2,69.0,29.62,WNW,292,3.3,6.5,78,0.00,,,0.01,Rainwise IP-100,2013-07-09 22:42:00,
2013-07-09 18:47:00,76.0,68.5,29.62,SSW,202,2.1,5.1,78,0.00,,,0.01,Rainwise IP-100,2013-07-09 22:47:00,
2013-07-09 18:52:00,75.8,69.0,29.62,WSW,247,0.0,7.0,79,0.00,,,0.01,Rainwise IP-100,2013-07-09 22:52:00,
2013-07-09 18:57:00,75.7,68.5,29.62,SW,225,1.4,9.3,79,0.00,,,0.01,Rainwise IP-100,2013-07-09 22:57:00,
2013-07-09 19:02:00,75.6,68.5,29.62,WSW,247,2.6,3.3,79,0.00,,,0.01,Rainwise IP-100,2013-07-09 23:02:00,
2013-07-09 19:08:00,75.5,69.0,29.63,SW,225,0.0,5.1,80,0.00,,,0.01,Rainwise IP-100,2013-07-09 23:08:00,
2013-07-09 19:13:00,75.3,69.0,29.62,SSW,202,4.9,4.9,80,0.00,,,0.01,Rainwise IP-100,2013-07-09 23:13:00,
2013-07-09 19:18:00,75.1,69.0,29.62,SSW,202,1.9,5.1,81,0.00,,,0.01,Rainwise IP-100,2013-07-09 23:18:00,
2013-07-09 19:23:00,74.8,68.5,29.62,SW,225,2.6,7.0,81,0.00,,,0.01,Rainwise IP-100,2013-07-09 23:23:00,
2013-07-09 19:28:00,74.7,68.5,29.62,South,180,4.4,7.9,81,0.00,,,0.01,Rainwise IP-100,2013-07-09 23:28:00,
2013-07-09 19:33:00,74.6,68.5,29.62,SSW,202,2.8,7.2,81,0.00,,,0.01,Rainwise IP-100,2013-07-09 23:33:00,
2013-07-09 19:38:00,74.5,68.5,29.62,South,180,4.0,6.3,81,0.00,,,0.01,Rainwise IP-100,2013-07-09 23:38:00,
2013-07-09 19:43:00,74.5,68.5,29.62,SSW,202,3.3,5.4,81,0.00,,,0.01,Rainwise IP-100,2013-07-09 23:43:00,
2013-07-09 19:48:00,74.4,68.5,29.62,ESE,112,1.4,6.3,81,0.00,,,0.01,Rainwise IP-100,2013-07-09 23:48:00,
2013-07-09 19:53:00,74.3,68.5,29.62,SSE,157,0.0,5.4,81,0.00,,,0.01,Rainwise IP-100,2013-07-09 23:53:00,
2013-07-09 19:58:00,74.3,68.5,29.62,WSW,247,1.6,4.9,81,0.00,,,0.01,Rainwise IP-100,2013-07-09 23:58:00,
2013-07-09 20:03:00,74.3,68.5,29.62,WSW,247,0.0,3.0,81,0.00,,,0.01,Rainwise IP-100,2013-07-10 00:03:00,
2013-07-09 20:08:00,74.1,68.5,29.61,SSE,157,0.0,2.6,82,0.00,,,0.01,Rainwise IP-100,2013-07-10 00:08:00,
2013-07-09 20:13:00,73.9,68.5,29.61,SSW,202,1.6,2.8,82,0.00,,,0.01,Rainwise IP-100,2013-07-10 00:13:00,
2013-07-09 20:18:00,73.8,68.5,29.61,SSW,202,0.0,2.6,83,0.00,,,0.01,Rainwise IP-100,2013-07-10 00:18:00,
2013-07-09 20:24:00,73.6,68.5,29.61,ESE,112,1.4,4.7,83,0.00,,,0.01,Rainwise IP-100,2013-07-10 00:24:00,
2013-07-09 20:29:00,73.3,68.0,29.61,SE,135,3.3,5.8,83,0.00,,,0.01,Rainwise IP-100,2013-07-10 00:29:00,
2013-07-09 20:34:00,73.3,68.0,29.61,WSW,247,1.4,3.7,83,0.00,,,0.01,Rainwise IP-100,2013-07-10 00:34:00,
2013-07-09 20:39:00,73.3,68.0,29.62,SSW,202,3.0,4.0,83,0.00,,,0.01,Rainwise IP-100,2013-07-10 00:39:00,
2013-07-09 20:44:00,73.1,68.0,29.62,SSW,202,6.3,7.7,84,0.00,,,0.01,Rainwise IP-100,2013-07-10 00:44:00,
2013-07-09 20:49:00,73.0,68.0,29.62,WSW,247,0.0,7.2,84,0.00,,,0.01,Rainwise IP-100,2013-07-10 00:49:00,
2013-07-09 20:54:00,72.9,68.0,29.62,SSW,202,3.3,4.2,84,0.00,,,0.01,Rainwise IP-100,2013-07-10 00:54:00,
2013-07-09 20:59:00,72.9,68.5,29.62,WSW,247,1.6,5.4,85,0.00,,,0.01,Rainwise IP-100,2013-07-10 00:59:00,
2013-07-09 21:04:00,72.8,68.0,29.63,SSW,202,2.6,6.3,85,0.00,,,0.01,Rainwise IP-100,2013-07-10 01:04:00,
2013-07-09 21:09:00,72.8,68.0,29.63,SSW,202,4.2,4.7,85,0.00,,,0.01,Rainwise IP-100,2013-07-10 01:09:00,
2013-07-09 21:14:00,72.7,68.0,29.63,SW,225,4.2,5.8,85,0.00,,,0.01,Rainwise IP-100,2013-07-10 01:14:00,
2013-07-09 21:19:00,72.7,68.0,29.63,SSW,202,4.2,5.8,85,0.00,,,0.01,Rainwise IP-100,2013-07-10 01:19:00,
2013-07-09 21:24:00,72.7,68.0,29.63,SSW,202,1.6,5.6,85,0.00,,,0.01,Rainwise IP-100,2013-07-10 01:24:00,
2013-07-09 21:29:00,72.6,68.0,29.64,SSE,157,4.2,5.6,85,0.00,,,0.01,Rainwise IP-100,2013-07-10 01:29:00,
2013-07-09 21:34:00,72.5,68.0,29.63,SSW,202,1.4,5.1,85,0.00,,,0.01,Rainwise IP-100,2013-07-10 01:34:00,
2013-07-09 21:40:00,72.4,67.5,29.63,WSW,247,3.0,5.8,85,0.00,,,0.01,Rainwise IP-100,2013-07-10 01:40:00,
2013-07-09 21:45:00,72.3,68.0,29.63,WSW,247,1.2,6.8,86,0.00,,,0.01,Rainwise IP-100,2013-07-10 01:45:00,
2013-07-09 21:50:00,72.2,68.0,29.63,SW,225,3.7,4.7,86,0.00,,,0.01,Rainwise IP-100,2013-07-10 01:50:00,
2013-07-09 21:55:00,72.2,68.0,29.63,SW,225,1.4,4.2,86,0.00,,,0.01,Rainwise IP-100,2013-07-10 01:55:00,
2013-07-09 22:00:00,72.1,68.0,29.63,WSW,247,2.6,4.0,87,0.00,,,0.01,Rainwise IP-100,2013-07-10 02:00:00,
2013-07-09 22:05:00,72.0,68.0,29.64,WSW,247,1.9,7.5,87,0.00,,,0.01,Rainwise IP-100,2013-07-10 02:05:00,
2013-07-09 22:10:00,71.9,68.0,29.63,SSW,202,1.9,7.2,87,0.00,,,0.01,Rainwise IP-100,2013-07-10 02:10:00,
2013-07-09 22:15:00,71.9,68.0,29.64,SSW,202,0.0,4.7,87,0.00,,,0.01,Rainwise IP-100,2013-07-10 02:15:00,
2013-07-09 22:20:00,71.8,67.5,29.63,ENE,67,1.6,2.8,87,0.00,,,0.01,Rainwise IP-100,2013-07-10 02:20:00,
2013-07-09 22:25:00,71.7,67.5,29.64,SSE,157,3.7,6.5,87,0.00,,,0.01,Rainwise IP-100,2013-07-10 02:25:00,
2013-07-09 22:30:00,71.7,68.0,29.63,SW,225,2.3,6.8,88,0.00,,,0.01,Rainwise IP-100,2013-07-10 02:30:00,
2013-07-09 22:35:00,71.6,68.0,29.64,SW,225,0.0,6.3,88,0.00,,,0.01,Rainwise IP-100,2013-07-10 02:35:00,
2013-07-09 22:40:00,71.6,68.0,29.63,South,180,3.0,5.1,88,0.00,,,0.01,Rainwise IP-100,2013-07-10 02:40:00,
2013-07-09 22:46:00,71.5,68.0,29.64,SW,225,2.1,5.8,88,0.00,,,0.01,Rainwise IP-100,2013-07-10 02:46:00,
2013-07-09 22:51:00,71.4,67.5,29.63,SSE,157,2.6,5.8,88,0.00,,,0.01,Rainwise IP-100,2013-07-10 02:51:00,
2013-07-09 22:56:00,71.4,67.5,29.64,SSW,202,5.1,6.1,88,0.00,,,0.01,Rainwise IP-100,2013-07-10 02:56:00,
2013-07-09 23:01:00,71.3,67.5,29.63,WSW,247,1.2,7.2,88,0.00,,,0.01,Rainwise IP-100,2013-07-10 03:01:00,
2013-07-09 23:06:00,71.2,67.5,29.64,SSE,157,2.3,5.1,88,0.00,,,0.01,Rainwise IP-100,2013-07-10 03:06:00,
2013-07-09 23:11:00,71.2,67.5,29.63,SSW,202,4.2,8.4,88,0.00,,,0.01,Rainwise IP-100,2013-07-10 03:11:00,
2013-07-09 23:16:00,71.1,67.0,29.63,SW,225,1.4,6.3,88,0.00,,,0.01,Rainwise IP-100,2013-07-10 03:16:00,
2013-07-09 23:21:00,71.0,67.0,29.63,SW,225,3.7,8.4,88,0.00,,,0.01,Rainwise IP-100,2013-07-10 03:21:00,
2013-07-09 23:26:00,71.0,67.5,29.63,SW,225,2.6,4.9,89,0.00,,,0.01,Rainwise IP-100,2013-07-10 03:26:00,
2013-07-09 23:31:00,70.9,67.5,29.64,SW,225,2.8,3.7,89,0.00,,,0.01,Rainwise IP-100,2013-07-10 03:31:00,
2013-07-09 23:36:00,70.9,67.5,29.64,SSW,202,4.7,4.7,89,0.00,,,0.01,Rainwise IP-100,2013-07-10 03:36:00,
2013-07-09 23:41:00,70.9,67.5,29.64,WSW,247,4.4,5.6,89,0.00,,,0.01,Rainwise IP-100,2013-07-10 03:41:00,
2013-07-09 23:46:00,70.9,67.5,29.64,SSE,157,2.3,8.4,89,0.00,,,0.01,Rainwise IP-100,2013-07-10 03:46:00,
2013-07-09 23:51:00,70.9,67.5,29.64,SSW,202,1.9,8.2,89,0.00,,,0.01,Rainwise IP-100,2013-07-10 03:51:00,
2013-07-09 23:56:00,70.9,67.5,29.63,SSW,202,2.3,4.4,89,0.00,,,0.01,Rainwise IP-100,2013-07-10 03:56:00,